"Pseudo-MPEC" for C0VEK95

Created 2024 Dec 2 12:31:04 UT using Find_Orb

Click here for an explanation of pseudo-MPECs

 
 Astrometry: 
     C0VEK95* C2024 11 26.46401909 26 15.040+20 37 08.40   ~BQC2 22.87GVNEOCPV00
     C0VEK95  C2024 11 26.46963709 26 16.105+20 37 31.19   ~BQC2 22.10GVNEOCPV00
     C0VEK95  C2024 11 26.47525309 26 17.131+20 37 54.08   ~BQC2 22.11GVNEOCPV00
     C0VEK95  C2024 11 26.48085809 26 18.139+20 38 16.26   ~BQC2 22.00GVNEOCPV00
     C0VEK95 KC2024 11 26.51425109 26 24.150+20 40 31.70   ~BQDH 22.10GVNEOCPV06
     C0VEK95 KC2024 11 26.52704309 26 26.470+20 41 23.20   ~BQDH 21.98GVNEOCPV06

Station data:
(V00) Kitt Peak-Bok  (N31.963125 W111.600190)  US/Arizona.  Observers T. A.
   Pruyne, B. M. Africano, E. J. Christensen, G. A. Farneth, D. C. Fuls, A.
   R. Gibbs, A. D. Grauer, H. Gröller, J. A. Johnson, R. A. Kowalski, S. M.
   Larson, G. J. Leonard, D. Rankin, R. L. Seaman, F. C. Shelly, K. W.
   Wierzchoś. 2.25-m reflector + 4x4K mosaic CCD.
(V06) Catalina Sky Survey-Kuiper  (N32.416871 W110.732550)  US/Arizona.
   Observers T. A. Pruyne, B. M. Africano, E. J. Christensen, G. A. Farneth,
   D. C. Fuls, A. R. Gibbs, A. D. Grauer, H. Gröller, J. A. Johnson, R. A.
   Kowalski, S. M. Larson, G. J. Leonard, D. Rankin, R. L. Seaman, F. C.
   Shelly, K. W. Wierzchoś. 1.55-m reflector + CCD.

Orbital elements:  C0VEK95
   Perihelion 2024 Oct 28.40625 +/- 65.3 TT =  9:44:59 (JD 2460611.90625)
Epoch 2024 Nov 26.0 TT = JDT 2460640.5   Earth MOID: 0.1678      AutoNEOCP
M  10.05727368 +/- 70               (J2000 ecliptic)
n   0.35172973 +/- 0.529            Peri.  335.86375 +/- 130
a   1.98760458 +/- 1.99             Node    80.17606 +/- 9
e   0.4325007 +/- 0.25              Incl.   28.46351 +/- 43
P   2.80217                H 22.14  G  0.15   U 12.3  SR
q 1.12796420 +/- 0.445    Q 2.84724496 +/- 4.53
From 6 observations 2024 Nov. 26 (90.8 min); mean residual 0".21
Residuals in arcseconds: 
241126 V00  .47-  .03+    241126 V00  .27+  .18+    241126 V06  .09-  .14+    
241126 V00  .17+  .05+    241126 V00  .15+  .34-    241126 V06  .03-  .05-    

Ephemerides (geocentric):
Date (UTC) HH   RA             Dec           delta  r     elong  mag " sig PA
---- --------  ------------   ------------  ------ ------ -----  --- --------
2024 12 02 13  09 45 16.594   +27 31 37.42  .39981 1.1872 110.6 22.4  19d  88
2024 12 02 14  09 45 24.341   +27 34 28.92  .39981 1.1874 110.7 22.4  20d  89
2024 12 02 15  09 45 32.086   +27 37 20.41  .39981 1.1875 110.7 22.4  20d  90
2024 12 02 16  09 45 39.829   +27 40 11.90  .39982 1.1876 110.7 22.4  20d  90
2024 12 02 17  09 45 47.572   +27 43 03.38  .39982 1.1878 110.7 22.4  21d  91
2024 12 02 18  09 45 55.313   +27 45 54.87  .39983 1.1879 110.8 22.4  21d  91
2024 12 02 19  09 46 03.052   +27 48 46.35  .39983 1.1880 110.8 22.4  21d  92
2024 12 02 20  09 46 10.790   +27 51 37.82  .39984 1.1882 110.8 22.4  22d  92
2024 12 02 21  09 46 18.526   +27 54 29.29  .39985 1.1883 110.8 22.4  22d  92
2024 12 02 22  09 46 26.261   +27 57 20.76  .39985 1.1884 110.9 22.4  23d  93
2024 12 02 23  09 46 33.994   +28 00 12.22  .39986 1.1886 110.9 22.4  23d  93
2024 12 03 00  09 46 41.726   +28 03 03.68  .39987 1.1887 110.9 22.4  24d  93
2024 12 03 01  09 46 49.457   +28 05 55.13  .39987 1.1888 110.9 22.4  24d  93
2024 12 03 02  09 46 57.185   +28 08 46.58  .39988 1.1890 111.0 22.4  25d  93
2024 12 03 03  09 47 04.913   +28 11 38.02  .39989 1.1891 111.0 22.4  25d  92
2024 12 03 04  09 47 12.638   +28 14 29.45  .39990 1.1893 111.0 22.4  25d  92
2024 12 03 05  09 47 20.363   +28 17 20.88  .39991 1.1894 111.0 22.4  26d  92
2024 12 03 06  09 47 28.085   +28 20 12.30  .39992 1.1895 111.1 22.4  26d  92
2024 12 03 07  09 47 35.806   +28 23 03.71  .39993 1.1897 111.1 22.4  27d  92
2024 12 03 08  09 47 43.526   +28 25 55.12  .39994 1.1898 111.1 22.4  27d  91
2024 12 03 09  09 47 51.244   +28 28 46.51  .39995 1.1899 111.1 22.4  27d  91
2024 12 03 10  09 47 58.960   +28 31 37.90  .39996 1.1901 111.2 22.4  28d  91
2024 12 03 11  09 48 06.675   +28 34 29.28  .39997 1.1902 111.2 22.4  28d  90
2024 12 03 12  09 48 14.389   +28 37 20.65  .39998 1.1904 111.2 22.4  28d  90
2024 12 03 13  09 48 22.100   +28 40 12.01  .39999 1.1905 111.2 22.4  29d  90
2024 12 03 14  09 48 29.810   +28 43 03.36  .40000 1.1906 111.3 22.4  29d  90
2024 12 03 15  09 48 37.519   +28 45 54.70  .40001 1.1908 111.3 22.4  29d  89
2024 12 03 16  09 48 45.226   +28 48 46.03  .40003 1.1909 111.3 22.4  30d  89
2024 12 03 17  09 48 52.931   +28 51 37.35  .40004 1.1910 111.3 22.4  30d  89
2024 12 03 18  09 49 00.634   +28 54 28.66  .40005 1.1912 111.4 22.4  30d  88
2024 12 03 19  09 49 08.336   +28 57 19.96  .40007 1.1913 111.4 22.4  30d  88
2024 12 03 20  09 49 16.036   +29 00 11.24  .40008 1.1915 111.4 22.4  31d  88
2024 12 03 21  09 49 23.735   +29 03 02.52  .40009 1.1916 111.4 22.4  31d  87
2024 12 03 22  09 49 31.432   +29 05 53.78  .40011 1.1917 111.5 22.4  31d  87
2024 12 03 23  09 49 39.127   +29 08 45.03  .40012 1.1919 111.5 22.4  31d  87
2024 12 04 00  09 49 46.821   +29 11 36.26  .40014 1.1920 111.5 22.4  31d  87
2024 12 04 01  09 49 54.513   +29 14 27.48  .40015 1.1921 111.5 22.4  32d  86
2024 12 04 02  09 50 02.203   +29 17 18.69  .40017 1.1923 111.6 22.4  32d  86
2024 12 04 03  09 50 09.892   +29 20 09.88  .40019 1.1924 111.6 22.4  32d  86
2024 12 04 04  09 50 17.579   +29 23 01.06  .40020 1.1926 111.6 22.4  32d  86
2024 12 04 05  09 50 25.264   +29 25 52.22  .40022 1.1927 111.6 22.4  32d  86
2024 12 04 06  09 50 32.947   +29 28 43.37  .40024 1.1928 111.7 22.4  33d  85
2024 12 04 07  09 50 40.629   +29 31 34.50  .40025 1.1930 111.7 22.4  33d  85
2024 12 04 08  09 50 48.309   +29 34 25.62  .40027 1.1931 111.7 22.4  33d  85
2024 12 04 09  09 50 55.987   +29 37 16.72  .40029 1.1933 111.7 22.4  33d  85
2024 12 04 10  09 51 03.664   +29 40 07.81  .40031 1.1934 111.8 22.4  33d  85
2024 12 04 11  09 51 11.338   +29 42 58.88  .40033 1.1935 111.8 22.4  34d  85
2024 12 04 12  09 51 19.011   +29 45 49.93  .40035 1.1937 111.8 22.4  34d  84